[[{"header":{"parameterUnit":"m.s-1","parameterCategory":1,"la1":30.2991,"la2":30.254,"lo1":-89.0895,"lo2":-89.0444,"dy":0.0017,"dx":0.0017,"nx":28,"ny":28,"refTime":"2024-03-05T09:00:00:Z","depth":0,"parameterNumber":2,"parameterNumberName":"U-component_of_WINDS"},"data":[0,0,0,0,0,0,0,0,0,0,0,0,0,0,0,0,0,0,0,0,0,0,0,0,0,0,0,0,0,0,0,0,0,0,0,0,0,0,0,0,0,0,0,0,0,0,0,0,0,0,0,0,0,0,0,0,0,0,-1.7464,-1.7464,0,-1.7555,-1.7556,-1.7557,-1.7626,-1.7626,-1.7627,-1.7628,-1.7721,-1.7723,-1.7725,0,0,0,0,0,0,0,0,0,0,0,0,0,-1.7349,-1.7351,-1.7463,-1.7465,-1.7466,-1.7554,-1.7556,-1.7557,-1.7626,-1.7626,-1.7627,-1.7628,-1.7721,-1.7723,-1.7725,0,0,0,0,0,0,0,0,0,0,0,0,0,-1.7415,-1.7351,-1.7463,-1.7511,-1.7516,-1.7554,-1.7556,-1.7557,-1.7625,-1.7626,-1.7627,-1.7628,-1.772,-1.7723,-1.7726,-1.7724,0,0,-1.7734,-1.7736,0,0,0,0,0,0,0,0,-1.7411,-1.7419,-1.7503,-1.7507,-1.7513,-1.758,-1.755,-1.7613,-1.7625,-1.7584,-1.7628,-1.7629,-1.7674,-1.768,-1.7695,-1.7729,-1.7733,-1.7735,-1.7736,-1.7738,-1.7738,0,0,0,0,0,0,0,-1.7407,-1.7416,-1.75,-1.7504,-1.751,-1.7527,-1.7538,-1.7562,-1.7622,-1.7587,-1.7593,-1.7602,-1.7677,-1.7692,-1.7698,-1.7734,-1.7735,-1.7737,-1.7739,-1.774,-1.7769,-1.7768,0,0,0,0,0,0,-1.7395,-1.7412,-1.7497,-1.7502,-1.7464,-1.7529,-1.754,-1.7557,-1.7622,-1.7633,-1.7602,-1.7605,-1.7687,-1.7695,-1.7702,-1.7702,-1.7738,-1.774,-1.7742,-1.777,-1.7769,-1.7768,0,0,0,0,0,0,-1.7392,-1.7402,-1.7493,-1.7458,-1.7471,-1.753,-1.7548,-1.7559,-1.7574,-1.7633,-1.7644,-1.7606,-1.7688,-1.7698,-1.7718,-1.7706,-1.7742,-1.7744,-1.7771,-1.777,-1.7769,-1.7704,0,0,0,0,0,0,-1.7388,-1.74,-1.74,-1.7458,-1.7473,-1.7507,-1.7548,-1.756,-1.7579,-1.7585,-1.764,-1.765,-1.769,-1.7713,-1.772,-1.7711,-1.7746,-1.7772,-1.7771,-1.7769,-1.7708,-1.7701,-1.7695,0,0,0,0,0,-1.7384,-1.7379,-1.74,-1.741,-1.7474,-1.7506,-1.7515,-1.756,-1.7578,-1.7578,-1.7616,-1.7649,-1.7707,-1.7714,-1.7724,-1.7715,-1.7773,-1.7771,-1.7769,-1.7711,-1.7702,-1.7695,0,0,0,0,0,0,-1.7319,-1.7388,-1.7411,-1.7425,-1.7459,-1.7518,-1.752,-1.755,-1.758,-1.7584,-1.7639,-1.7651,-1.7664,-1.7693,-1.7699,-1.7716,-1.7744,-1.7744,-1.7697,-1.7689,-1.7683,-1.7675,-1.7749,0,0,0,0,0,-1.7307,-1.7327,-1.7386,-1.7392,-1.7408,-1.7461,-1.7477,-1.7508,-1.7546,-1.7561,-1.76,-1.7635,-1.7662,-1.7678,-1.7705,-1.7713,-1.7725,-1.7712,-1.7705,-1.77,-1.7698,-1.7702,-1.7696,-1.7761,-1.7761,-1.7761,0,0,-1.728,-1.732,-1.733,-1.738,-1.741,-1.7429,-1.7472,-1.7492,-1.7506,-1.7564,-1.7584,-1.7614,-1.7658,-1.7671,-1.7679,-1.7694,-1.7683,-1.7697,-1.7692,-1.7694,-1.7699,-1.7693,-1.7687,-1.776,-1.776,-1.776,0,0,-1.7242,-1.7275,-1.7283,-1.7312,-1.7357,-1.7392,-1.7394,-1.7448,-1.747,-1.7491,-1.7534,-1.7553,-1.7598,-1.7626,-1.7646,-1.7618,-1.7649,-1.7626,-1.7592,-1.7595,-1.759,-1.7586,-1.7573,-1.7568,-1.7624,-1.7624,-1.7624,0,-1.7203,-1.7234,-1.7283,-1.7299,-1.7319,-1.7372,-1.7379,-1.7406,-1.7458,-1.747,-1.7487,-1.7543,-1.7577,-1.7596,-1.7589,-1.7605,-1.7607,-1.7618,-1.7587,-1.7583,-1.758,-1.7568,-1.7563,-1.7621,-1.7621,-1.7622,-1.7622,0,-1.7183,-1.7204,-1.7205,-1.7252,-1.7273,-1.7285,-1.7335,-1.735,-1.738,-1.7413,-1.7434,-1.7475,-1.7511,-1.7519,-1.7549,-1.7542,-1.755,-1.7577,-1.7605,-1.7569,-1.7559,-1.7555,-1.7616,-1.7617,-1.7618,-1.7619,0,0,-1.7105,-1.7179,-1.7178,-1.7199,-1.7253,-1.727,-1.7284,-1.7319,-1.7329,-1.7364,-1.7375,-1.7412,-1.7436,-1.7459,-1.7493,-1.7496,-1.7468,-1.7522,-1.7524,-1.7508,-1.746,-1.7437,-1.7431,-1.749,-1.7489,-1.7489,-1.7455,0,-1.7072,-1.7099,-1.7143,-1.7156,-1.7174,-1.7225,-1.7237,-1.7271,-1.7302,-1.7323,-1.7359,-1.7382,-1.7414,-1.7427,-1.7433,-1.747,-1.7458,-1.7474,-1.75,-1.75,-1.7483,-1.7426,-1.7403,-1.7369,-1.7452,-1.7451,-1.7451,0,-1.7037,-1.7067,-1.7081,-1.7131,-1.7141,-1.7151,-1.7185,-1.7205,-1.7244,-1.7267,-1.7292,-1.7329,-1.7346,-1.7374,-1.7397,-1.7406,-1.742,-1.744,-1.744,-1.7441,-1.747,-1.7423,-1.736,-1.7353,-1.7446,-1.7446,-1.7446,0,-1.6974,-1.7019,-1.7032,-1.7049,-1.711,-1.7115,-1.714,-1.7181,-1.7198,-1.7229,-1.724,-1.7273,-1.729,-1.7315,-1.7359,-1.7376,-1.7376,-1.7409,-1.7394,-1.7392,-1.7388,-1.7387,-1.7323,-1.7403,-1.7403,-1.7403,-1.7403,0,-1.6931,-1.6937,-1.7004,-1.7012,-1.7019,-1.7071,-1.7077,-1.7107,-1.7143,-1.7157,-1.7205,-1.7217,-1.7276,-1.7296,-1.7331,-1.7343,-1.7352,-1.7369,-1.7378,-1.7363,-1.736,-1.737,-1.7372,-1.7402,-1.7402,-1.7403,-1.7403,0,-1.6861,-1.6907,-1.6924,-1.6979,-1.6994,-1.6996,-1.7044,-1.7053,-1.7088,-1.7105,-1.7112,-1.7166,-1.7191,-1.7239,-1.7278,-1.7301,-1.7304,-1.7322,-1.729,-1.7295,-1.7276,-1.7275,-1.7212,-1.7205,-1.7293,-1.7292,-1.7291,0,-1.6828,-1.6834,-1.6889,-1.6902,-1.6925,-1.6945,-1.6963,-1.7015,-1.7031,-1.7076,-1.7079,-1.7108,-1.7133,-1.7171,-1.7213,-1.7243,-1.7259,-1.7235,-1.7264,-1.7248,-1.7255,-1.7252,-1.7251,-1.7227,-1.7226,-1.7225,-1.7224,0,-1.6765,-1.6787,-1.6811,-1.6841,-1.6861,-1.6888,-1.6918,-1.6925,-1.6984,-1.7,-1.7025,-1.7045,-1.7084,-1.7111,-1.7146,-1.7173,-1.7207,-1.7216,-1.7213,-1.7195,-1.7175,-1.7182,-1.7269,-1.7216,-1.7217,-1.7217,-1.7218,-1.7218,-1.6711,-1.6716,-1.6756,-1.678,-1.6808,-1.6834,-1.6844,-1.688,-1.6902,-1.6937,-1.6967,-1.6989,-1.7028,-1.7079,-1.7104,-1.7122,-1.7138,-1.7136,-1.7134,-1.7132,-1.7124,-1.7175,-1.7129,-1.713,-1.713,-1.713,-1.713,0,-1.6646,-1.6674,-1.6696,-1.6735,-1.6754,-1.6786,-1.682,-1.6833,-1.6852,-1.6885,-1.6909,-1.6937,-1.6964,-1.7009,-1.7039,-1.7044,-1.7061,-1.705,-1.7048,-1.7053,-1.7109,-1.7106,-1.7036,-1.7036,-1.7036,-1.7036,-1.7036,-1.7036,-1.6615,-1.6625,-1.6652,-1.6677,-1.6706,-1.6727,-1.6743,-1.6767,-1.6794,-1.6823,-1.6845,-1.6874,-1.6912,-1.6945,-1.697,-1.6983,-1.699,-1.6973,-1.699,-1.7041,-1.705,-1.7058,-1.7055,-1.6975,-1.6975,-1.6933,-1.6932,-1.6932]},{"header":{"parameterUnit":"m.s-1","parameterCategory":1,"la1":30.2991,"la2":30.254,"lo1":-89.0895,"lo2":-89.0444,"dy":0.0017,"dx":0.0017,"nx":28,"ny":28,"refTime":"2024-03-05T09:00:00:Z","depth":0,"parameterNumber":3,"parameterNumberName":"V-component_of_WINDS"},"data":[0,0,0,0,0,0,0,0,0,0,0,0,0,0,0,0,0,0,0,0,0,0,0,0,0,0,0,0,0,0,0,0,0,0,0,0,0,0,0,0,0,0,0,0,0,0,0,0,0,0,0,0,0,0,0,0,0,0,4.0103,4.0106,0,4.0314,4.0316,4.0319,4.0378,4.0377,4.0376,4.0375,4.0591,4.0598,4.0604,0,0,0,0,0,0,0,0,0,0,0,0,0,3.9756,3.9762,4.0103,4.0106,4.0108,4.0314,4.0316,4.0319,4.0378,4.0377,4.0376,4.0374,4.0589,4.0597,4.0605,0,0,0,0,0,0,0,0,0,0,0,0,0,3.9931,3.9764,4.0103,4.0163,4.017,4.0313,4.0317,4.032,4.0379,4.0377,4.0375,4.0374,4.0586,4.0596,4.0606,4.0705,0,0,4.0637,4.0642,0,0,0,0,0,0,0,0,3.9921,3.9944,4.0151,4.0159,4.0167,4.0318,4.0274,4.0449,4.0379,4.0299,4.0375,4.0373,4.0502,4.0519,4.0562,4.0715,4.0724,4.0638,4.0645,4.0649,4.0652,0,0,0,0,0,0,0,3.9909,3.9935,4.0187,4.0154,4.0164,4.018,4.0203,4.0307,4.0408,4.0306,4.0311,4.0335,4.0506,4.0552,4.0568,4.0727,4.0638,4.0647,4.0654,4.0658,4.0978,4.098,0,0,0,0,0,0,3.9886,3.9924,4.018,4.0193,4.0037,4.0188,4.0214,4.0271,4.0407,4.0426,4.0336,4.0337,4.0535,4.0555,4.0575,4.0704,4.0649,4.0659,4.0664,4.0975,4.0978,4.0981,0,0,0,0,0,0,3.9878,3.9908,4.0171,4.006,4.0095,4.0196,4.026,4.0276,4.0323,4.043,4.0448,4.0365,4.0535,4.0561,4.0673,4.0712,4.0663,4.0673,4.0973,4.0976,4.0979,4.0959,0,0,0,0,0,0,3.9868,3.9905,3.9942,4.006,4.0101,4.0264,4.0263,4.0282,4.034,4.0343,4.0461,4.0479,4.0535,4.0658,4.0684,4.0725,4.0681,4.097,4.0974,4.0978,4.0956,4.0961,4.0965,0,0,0,0,0,3.9855,3.9927,3.9944,3.9974,4.0149,4.0266,4.029,4.0352,4.0343,4.0383,4.0452,4.0476,4.0703,4.0669,4.0698,4.0744,4.0967,4.0973,4.0978,4.0954,4.096,4.0965,0,0,0,0,0,0,3.9809,3.9943,3.9963,4.0075,4.0159,4.0276,4.0327,4.0356,4.0444,4.0443,4.0518,4.0544,4.0652,4.0709,4.0668,4.0849,4.0836,4.0848,4.0808,4.0814,4.0819,4.0803,4.0689,0,0,0,0,0,3.9812,3.9896,4.0008,4.0096,4.0137,4.0225,4.0279,4.032,4.041,4.0446,4.0524,4.0611,4.0703,4.0761,4.0851,4.0965,4.0994,4.1011,4.1015,4.1018,4.1028,4.1097,4.1107,4.0998,4.0998,4.0998,0,0,3.9819,3.9902,3.995,4.0089,4.0159,4.0246,4.0255,4.0344,4.0411,4.046,4.0572,4.0632,4.0735,4.0849,4.0904,4.09,4.1065,4.1025,4.1026,4.1035,4.1104,4.1114,4.1123,4.1002,4.1001,4.1,0,0,3.9876,3.9946,4.0029,4.01,4.0207,4.0265,4.0285,4.04,4.0442,4.0556,4.0596,4.0676,4.0831,4.0904,4.0962,4.1052,4.1078,4.1079,4.1102,4.1168,4.1177,4.1185,4.1221,4.1233,4.1088,4.1088,4.1088,0,3.9871,4.0002,4.0068,4.0158,4.022,4.027,4.0356,4.0422,4.0552,4.0595,4.0588,4.0788,4.086,4.0995,4.1018,4.1061,4.1089,4.1066,4.117,4.1179,4.1188,4.1223,4.1236,4.1087,4.1087,4.1087,4.1087,0,3.9993,4.0084,4.0138,4.0265,4.0333,4.042,4.0501,4.0562,4.0599,4.0659,4.0777,4.0866,4.0977,4.1012,4.1047,4.1153,4.1149,4.1155,4.1144,4.1197,4.1231,4.1245,4.1087,4.1087,4.1087,4.1087,0,0,4.0025,4.019,4.0209,4.0269,4.0393,4.0465,4.0556,4.0666,4.0719,4.0808,4.0889,4.1021,4.103,4.1095,4.114,4.1198,4.127,4.12,4.1203,4.1212,4.1397,4.1393,4.1407,4.1288,4.129,4.1293,4.139,0,4.01,4.0265,4.0329,4.0465,4.0552,4.0603,4.0683,4.0769,4.0829,4.0913,4.0979,4.1073,4.1075,4.1116,4.1176,4.1248,4.1308,4.1242,4.1367,4.137,4.1342,4.1425,4.142,4.1507,4.1403,4.1406,4.1407,0,4.0209,4.0302,4.0446,4.0563,4.0602,4.0673,4.0782,4.086,4.096,4.1,4.1075,4.1117,4.1218,4.12,4.1342,4.1296,4.1351,4.1395,4.14,4.1416,4.1393,4.1446,4.1536,4.155,4.1429,4.1427,4.1425,0,4.0223,4.0383,4.0492,4.0541,4.0679,4.0729,4.0789,4.0887,4.0951,4.1046,4.1088,4.1193,4.1251,4.1333,4.1404,4.1383,4.1541,4.1528,4.158,4.1578,4.1612,4.1609,4.1715,4.1642,4.1642,4.1642,4.1641,0,4.0301,4.0388,4.05,4.0567,4.0668,4.0742,4.084,4.0904,4.0991,4.1074,4.1123,4.12,4.1288,4.1376,4.1432,4.1544,4.1569,4.1606,4.162,4.1603,4.1599,4.1642,4.1639,4.1645,4.1645,4.1644,4.1643,0,4.0333,4.0411,4.0534,4.0656,4.0689,4.0758,4.0864,4.0933,4.0996,4.1099,4.1128,4.1227,4.1335,4.1413,4.1551,4.1589,4.171,4.1723,4.1677,4.1685,4.1734,4.1729,4.1873,4.1897,4.1805,4.1806,4.1806,0,4.0379,4.0448,4.0579,4.0638,4.0698,4.0792,4.0858,4.0935,4.1002,4.1124,4.1178,4.1289,4.1382,4.1552,4.1637,4.1744,4.1762,4.1806,4.1779,4.1761,4.1768,4.1764,4.1773,4.181,4.181,4.1811,4.1811,0,4.0454,4.0491,4.0583,4.0692,4.0769,4.0858,4.0947,4.0993,4.1086,4.1159,4.127,4.1343,4.1486,4.1597,4.1713,4.1777,4.1812,4.1819,4.1838,4.1822,4.1794,4.1814,4.169,4.1815,4.1815,4.1815,4.1814,4.1814,4.0497,4.0563,4.0667,4.077,4.0846,4.093,4.1001,4.1075,4.1168,4.1291,4.1331,4.1447,4.155,4.171,4.1776,4.187,4.1869,4.1894,4.1901,4.1907,4.1908,4.1777,4.189,4.189,4.189,4.189,4.189,0,4.0578,4.0648,4.0742,4.0868,4.095,4.0975,4.1076,4.1144,4.1246,4.1338,4.143,4.156,4.1669,4.1765,4.1879,4.1935,4.1954,4.1963,4.1961,4.1976,4.19,4.1875,4.1946,4.1946,4.1946,4.1946,4.1946,4.1946,4.063,4.0744,4.0793,4.0946,4.1016,4.1131,4.1187,4.1266,4.1341,4.1485,4.1576,4.1637,4.1733,4.1855,4.1958,4.1983,4.2024,4.203,4.206,4.1987,4.1981,4.1975,4.1951,4.2038,4.2038,4.2129,4.213,4.213]}]]